CZ-6A DEB, 54295

Orbit data source: Space-Track

CZ-6A DEB, 54295 is space debris in SSO originally from a launch on Fri, 11 Nov 2022 UTC launched from the Taiyaun Space Center, China (TSC). Debris objects in space refer to the collection of defunct objects orbiting the Earth. Examples of debris include non-operational satellites, rocket bodies, and fragments generated from explosions, collisions, or faulty payload assembly.

Loading next visibility...
Identifier
54295, 2022-151AN
Orbit
SSO
Country
Flag of CNCN / PRC
Related business
Manufacturer
SAST
Mission
Spacecraft
Bus & Motor
Unknown
Mass
Unknown
Launch date (UTC)
2022-11-11 (4 years ago)
Launch vehicle
Unknown
Launch site
Taiyaun Space Center, China (TSC)
Object type
Payload
Rocket body
Debris
Shape & HBR
Unknown shape, 0.1 m
Radar Cross Section
Medium (>0.1 m² and <1 m²)

Expand to show TLE details & history
Last TLE update: 2 days ago

TLE from 2 days ago
0 CZ-6A DEB
1 54295U 22151AN  26171.01425994  .00002790  00000-0  97399-3 0  9995
2 54295  98.7335 185.5353 0141835 151.3541 209.5528 14.30561910186459
Epoch: 2026-06-20T00:20Z
TLE epoch observation values (Epoch: 2026-06-20T00:20:32.058Z)
Latitude
0.00003°
Longitude
-87.83325°
Altitude
881.585 km
Speed
7.365 km/s
True Right ascension
12h 22m 08s
True Declination
0° 00' 00"
Sunlit
Object was in daylight at epoch
Visualization orbit readout
Latitude
Unknown
Longitude
Unknown
Altitude
Unknown
Speed
Unknown
Apparent Right ascension
Unknown
Apparent Declination
Unknown
Sunlit
N/A
Visualization observer readout
Local Sidereal Time
21:42:59
Azimuth
Unknown
Elevation
Unknown
Doppler factor
Unknown
Orbital elements
Apogee altitude
888.625 km
Perigee altitude
685.371 km
Semi-major axis
7,165.135 km
Eccentricity
0.01418
Inclination
98.7335°
RAAN
185.5353°
Arg. of periapsis
151.3541°
True anomaly
208.76336°
Mean anomaly
209.5528°
Eccentric anomaly
209.15687°
Mean motion
3.57855 °/min
Orbital period
100.6 mins
BSTAR
0.00097399
Loading maneuver chart data...
Computing Atmospheric mass density...
Loading historical data...
Loading historical data...
Loading historical data...
Loading historical data...
Loading historical data...
Loading historical data...
Loading historical data...

Documentation

Showing up to 5 results
|